#timestamp,LO_Frequency,Hit,StdDev 
1633600815.1,286046999.3,N
1633600835.9,286046999.1,N
1633600855.7,286046999.5,N
1633600875.5,286046998.3,N
1633600925.4,286046998.2,E
1633600935.3,286046999.8,N
1633600955.1,286047002.1,P
1633600975.9,286047002.2,N
1633600995.7,286047000.4,N
1633601015.6,286047002.2,N
1633601035.4,286047001.1,N
1633601055.2,286047000.6,N
1633601075.1,286047000.8,N
1633601076.0,286047000.8,N
1633601095.8,286046998.4,N
1633601115.7,286046998.1,N
1633601135.5,286047000.6,N
1633601155.3,286047000.1,N
1633601175.2,286047000.2,N
1633601195.0,286047000.7,N
1633601195.9,286047000.7,N
1633601215.8,286047000.9,N
1633601235.6,286047000.0,N
1633601255.4,286047000.3,N
1633601275.3,286046998.1,N
1633601295.1,286046999.3,N
1633601315.9,286046998.7,N
1633601335.7,286047001.0,N
1633601355.5,286046998.1,N
1633601375.4,286047000.7,N
1633601395.2,286047000.0,N
1633601415.1,286046999.8,N
1633601416.0,286046999.8,N
1633601435.8,286047000.1,N
1633601455.7,286047000.2,N
1633601475.5,286046999.7,N
1633601495.3,286047002.3,N
1633601515.2,286047002.3,N
1633601535.0,286047002.6,N
1633601535.9,286047002.6,N
1633601555.7,286047002.7,N
1633601575.6,286047002.1,N
1633601595.4,286047002.7,N
1633601615.3,286046999.7,N
1633601635.1,286047000.0,N
1633601636.0,286047000.0,N
1633601655.8,286046998.5,N
1633601675.7,286047001.1,N
1633601695.5,286046999.0,N
1633601715.4,286046999.6,N
1633601735.2,286046998.1,N
1633601755.0,286047000.3,N
1633601775.4,286046999.7,N
1633601795.2,286047000.1,N
1633601815.1,286047002.4,N
1633601816.0,286047002.4,N
1633601835.8,286047000.9,N
1633601855.7,286047000.3,N
1633601875.5,286047000.8,N
1633601895.3,286047002.2,N
1633601915.2,286047001.5,N
1633601935.0,286047002.7,N
1633601935.9,286047002.7,N
1633601955.8,286047000.2,N
1633601975.6,286046998.2,N
1633601995.4,286047000.9,N
1633602015.3,286047001.0,N
1633602035.1,286047000.8,N
1633602055.8,286046998.2,N
1633602075.7,286046999.1,N
1633602095.5,286047001.2,N
1633602115.4,286047000.6,N
1633602135.2,286047000.3,N
1633602155.0,286047000.2,N
1633602155.9,286047000.2,N
1633602175.8,286047002.8,N
1633602195.6,286047002.3,N
1633602215.5,286047001.9,N
1633602235.3,286047000.2,N
1633602255.1,286047000.1,N
1633602275.9,286047000.3,N
1633602295.7,286047002.8,N
1633602315.5,286047002.3,N
1633602335.4,286046998.7,N
1633602355.2,286046996.6,N
1633602375.1,286046999.5,N
1633602376.0,286046999.5,N
1633602395.8,286046998.7,N
1633602415.6,286046998.9,N
1633602435.5,286046998.4,N
1633602455.3,286046998.3,N
1633602475.2,286046998.9,N
1633602495.9,286046998.2,N
1633602515.7,286046998.6,N
1633602535.6,286046998.1,N
1633602555.4,286046998.4,N
1633602575.3,286047001.2,N
1633602595.1,286046998.1,N
1633602596.0,286046998.1,N
1633602615.8,286047001.2,N
1633602635.7,286047000.8,N
1633602655.5,286047001.0,N
1633602675.3,286047001.1,N
1633602695.2,286047000.6,N
1633602715.0,286047002.8,N
1633602715.9,286047002.8,N
1633602735.8,286047000.1,N
1633602755.6,286046999.9,N
1633602775.4,286047000.1,N
1633602795.3,286046999.9,N
1633602815.1,286047000.0,N
1633602835.9,286046999.8,N
1633602855.7,286047002.8,N
1633602875.5,286046999.8,N
1633602895.4,286047000.3,N
1633602915.2,286047002.4,N
1633602935.0,286047002.3,N
1633602935.9,286047002.3,N
1633602955.8,286047002.6,N
1633602975.6,286047001.5,N
1633602995.5,286047001.9,N
1633603015.3,286047002.0,N
1633603035.1,286047002.0,N
1633603055.9,286047002.5,N
1633603075.7,286047001.4,N
1633603095.5,286047001.3,N
1633603115.4,286047001.6,N
1633603135.2,286047001.3,N
1633603155.1,286047004.4,Y
1633603156.0,286047004.4,P
1633603175.8,286047002.5,N
1633603195.7,286047002.6,N
1633603215.5,286047000.3,N
1633603235.3,286046998.2,N
1633603255.2,286047000.8,N
1633603275.0,286046998.3,N
1633603275.9,286046998.3,N
1633603295.7,286046999.3,N
1633603315.6,286047000.8,N
1633603335.4,286047000.6,N
1633603355.3,286047001.0,N
1633603375.1,286046998.5,N
1633603376.0,286046998.5,N
1633603395.8,286046998.4,N
1633603415.7,286046999.0,N
1633603435.5,286046996.5,N
1633603455.4,286046998.3,N
1633603475.2,286046998.1,N
1633603495.0,286046998.7,N
1633603495.9,286046998.7,N
1633603515.8,286046998.3,N
1633603535.6,286047001.2,N
1633603555.5,286046999.4,N
1633603575.3,286046996.5,N
1633603595.1,286046998.3,N
1633603615.9,286046998.8,N
1633603635.7,286046999.1,N
1633603655.5,286046999.6,N
1633603675.4,286046998.9,N
1633603695.2,286047001.1,N
1633603715.1,286046998.4,N
1633603716.0,286046998.4,N
1633603735.8,286046999.2,N
1633603755.6,286047001.2,N
1633603775.5,286047000.7,N
1633603795.3,286046998.1,N
1633603815.2,286047000.6,N
1633603835.9,286047000.8,N
1633603855.7,286047000.6,N
1633603875.6,286047000.6,N
1633603895.4,286047000.9,N
1633603915.2,286047000.3,N
1633603935.1,286046999.7,N
1633603936.0,286046999.7,N
1633603955.8,286047001.9,N
1633603975.7,286047001.9,N
1633603995.5,286047002.0,N
1633604015.3,286047001.6,N
1633604035.2,286047002.1,N
1633604055.0,286047002.4,N
1633604055.9,286047002.4,N
1633604075.7,286047001.5,N
1633604095.6,286047001.6,N
1633604115.4,286047001.8,N
1633604135.3,286047002.0,N
1633604155.1,286047002.5,N
1633604156.0,286047002.5,N
1633604175.8,286047001.9,N
1633604195.7,286047002.0,N
1633604215.5,286047002.1,N
1633604235.3,286047001.6,N
1633604255.2,286047002.2,N
1633604275.0,286047001.8,N
1633604275.9,286047001.8,N
1633604295.8,286047004.2,Y
1633604315.6,286047002.7,P
1633604335.4,286047002.8,P
1633604355.3,286047002.7,P
1633604375.1,286046999.7,N
1633604395.9,286047002.5,N
